Weather History for Houghton, MI

Change the Weather History Date:

Friday, March 2, 2012

  Actual Average Record
Temperature  
Mean Temperature 29 °F -  
Max Temperature 32 °F 27 °F 44 °F (1993)
Min Temperature 26 °F 13 °F -18 °F (2003)
Degree Days  
Heating Degree Days 36    
Moisture  
Dew Point 28 °F    
Average Humidity 94    
Maximum Humidity 100    
Minimum Humidity 85    
Precipitation  
Precipitation 0.00 in - - ()
Sea Level Pressure  
Sea Level Pressure 29.64 in    
Wind  
Wind Speed 2 mph (ENE)    
Max Wind Speed 10 mph    
Max Gust Speed -    
Visibility 5 miles    
Events Fog , Snow    
Averages and records for this station are not official NWS values.
T = Trace of Precipitation, MM = Missing Value Source: NWS Daily Summary

Daily Weather History Graph

Daily Weather History Graph

Search for Another Location

Airport:

Trip Planner

Search our weather history database for the weather conditions in past years. The results will help you decide how hot, cold, wet, or windy it might be!

Date:

Astronomy

Mar. 02, 2012 Rise Set
Actual Time 7:31 AM EST 6:41 PM EST
Civil Twilight 7:00 AM EST 7:12 PM EST
Nautical Twilight 6:25 AM EST 7:47 PM EST
Astronomical Twilight 5:49 AM EST 8:23 PM EST
Moon 12:35 PM EST (3/2) 3:39 AM EST (3/2)
Length of Visible Light 12h 11m
Length of Day
11h 10m
Waxing Gibbous, 66% of the Moon is Illuminated
Mar 2
Waxing Gibbous
Mar 8
Full
Mar 14
Last Quarter
Mar 22
New
Mar 30
First Quarter

Hourly Weather History & Observations

Time (EST) Temp. Windchill Dew Point Humidity Pressure Visibility Wind Dir Wind Speed Gust Speed Precip Events Conditions
12:07 AM 28.4 °F - 28.4 °F 100% 29.74 in 4.0 mi Calm Calm - N/A   Overcast
12:22 AM 28.4 °F - 28.4 °F 100% 29.74 in 3.0 mi Calm Calm - N/A   Overcast
12:30 AM 28.4 °F - 28.4 °F 100% 29.74 in 1.8 mi Calm Calm - N/A   Overcast
12:37 AM 28.4 °F - 28.4 °F 100% 29.74 in 0.8 mi Calm Calm - N/A   Overcast
12:53 AM 28.0 °F - 28.0 °F 100% 29.79 in 0.5 mi Calm Calm - N/A Fog Light Freezing Fog
1:07 AM 28.4 °F - 26.6 °F 93% 29.74 in 0.5 mi Calm Calm - N/A Fog Light Freezing Fog
1:25 AM 28.4 °F - 28.4 °F 100% 29.74 in 0.2 mi Calm Calm - N/A Fog Light Freezing Fog
1:33 AM 28.4 °F - 28.4 °F 100% 29.74 in 0.5 mi Calm Calm - N/A Fog Light Freezing Fog
1:40 AM 28.4 °F - 28.4 °F 100% 29.74 in 0.5 mi Calm Calm - N/A Fog Light Freezing Fog
1:53 AM 28.0 °F - 28.0 °F 100% 29.78 in 0.5 mi Calm Calm - N/A Fog Light Freezing Fog
2:04 AM 28.4 °F - 26.6 °F 93% 29.73 in 0.2 mi Calm Calm - N/A Fog Light Freezing Fog
2:15 AM 28.4 °F - 28.4 °F 100% 29.73 in 0.2 mi Calm Calm - N/A Fog Light Freezing Fog
2:33 AM 26.6 °F - 26.6 °F 100% 29.73 in 0.2 mi Calm Calm - N/A Fog Light Freezing Fog
2:39 AM 26.6 °F - 26.6 °F 100% 29.73 in 0.2 mi Calm Calm - N/A Fog Light Freezing Fog
2:50 AM 28.4 °F - 26.6 °F 93% 29.73 in 0.2 mi Calm Calm - N/A Fog Light Freezing Fog
2:53 AM 28.0 °F - 27.0 °F 96% 29.78 in 0.2 mi Calm Calm - N/A Fog Light Freezing Fog
3:31 AM 28.4 °F - 28.4 °F 100% 29.72 in 0.2 mi Calm Calm - N/A Fog Light Freezing Fog
3:53 AM 28.0 °F - 27.0 °F 96% 29.76 in 0.2 mi Calm Calm - N/A Fog Light Freezing Fog
4:28 AM 28.4 °F - 26.6 °F 93% 29.70 in 0.2 mi Calm Calm - N/A Fog Light Freezing Fog
4:53 AM 28.0 °F - 27.0 °F 96% 29.75 in 0.2 mi Calm Calm - N/A Fog Light Freezing Fog
5:53 AM 28.0 °F - 27.0 °F 96% 29.74 in 0.2 mi Calm Calm - N/A Fog Light Freezing Fog
6:53 AM 28.0 °F - 28.0 °F 100% 29.74 in 0.2 mi Calm Calm - N/A Fog Light Freezing Fog
7:53 AM 28.9 °F - 28.0 °F 96% 29.74 in 0.2 mi Calm Calm - N/A Fog Light Freezing Fog
8:53 AM 30.0 °F - 28.9 °F 96% 29.73 in 0.2 mi Calm Calm - N/A Fog Light Freezing Fog
9:42 AM 30.2 °F 26.7 °F 28.4 °F 93% 29.66 in 0.8 mi ENE 3.5 mph - N/A   Mist
9:53 AM 30.9 °F 26.2 °F 28.9 °F 92% 29.70 in 1.0 mi ENE 4.6 mph - N/A   Overcast
10:32 AM 30.2 °F - 28.4 °F 93% 29.66 in 3.0 mi Calm Calm - N/A   Overcast
10:53 AM 32.0 °F 26.4 °F 28.9 °F 88% 29.71 in 9.0 mi SE 5.8 mph - N/A   Overcast
11:17 AM 30.2 °F 24.3 °F 28.4 °F 93% 29.66 in 10.0 mi ESE 5.8 mph - N/A   Overcast
11:53 AM 30.9 °F 27.5 °F 30.0 °F 96% 29.71 in 10.0 mi SE 3.5 mph - N/A   Overcast
12:53 PM 30.9 °F 27.5 °F 30.0 °F 96% 29.69 in 10.0 mi SE 3.5 mph - N/A   Overcast
1:53 PM 32.0 °F 26.4 °F 30.0 °F 92% 29.65 in 10.0 mi East 5.8 mph - N/A   Overcast
2:26 PM 32.0 °F 27.5 °F 28.4 °F 87% 29.60 in 10.0 mi ENE 4.6 mph - N/A   Overcast
2:53 PM 32.0 °F 26.4 °F 28.9 °F 88% 29.62 in 10.0 mi East 5.8 mph - N/A   Overcast
3:40 PM 32.0 °F 27.5 °F 28.4 °F 87% 29.56 in 10.0 mi East 4.6 mph - N/A   Overcast
3:53 PM 32.0 °F 27.5 °F 28.9 °F 88% 29.60 in 10.0 mi East 4.6 mph - N/A   Overcast
4:53 PM 32.0 °F 26.4 °F 28.0 °F 85% 29.60 in 10.0 mi East 5.8 mph - N/A   Overcast
5:36 PM 32.0 °F 25.6 °F 28.4 °F 87% 29.55 in 10.0 mi East 6.9 mph - N/A   Overcast
5:43 PM 32.0 °F 27.5 °F 28.4 °F 87% 29.55 in 10.0 mi ESE 4.6 mph - N/A   Overcast
5:53 PM 32.0 °F 26.4 °F 30.0 °F 92% 29.58 in 10.0 mi East 5.8 mph - N/A   Overcast
6:02 PM 32.0 °F 26.4 °F 30.2 °F 93% 29.54 in 10.0 mi East 5.8 mph - N/A   Overcast
6:26 PM 30.2 °F 23.4 °F 28.4 °F 93% 29.54 in 10.0 mi East 6.9 mph - N/A   Overcast
6:40 PM 30.2 °F 21.9 °F 28.4 °F 93% 29.54 in 10.0 mi East 9.2 mph - N/A   Overcast
6:49 PM 30.2 °F 23.4 °F 28.4 °F 93% 29.53 in 10.0 mi East 6.9 mph - N/A   Overcast
6:53 PM 30.9 °F 25.2 °F 28.9 °F 92% 29.57 in 10.0 mi East 5.8 mph - N/A   Overcast
7:53 PM 30.9 °F 26.2 °F 28.9 °F 92% 29.56 in 10.0 mi ENE 4.6 mph - N/A   Overcast
8:18 PM 30.2 °F 23.4 °F 28.4 °F 93% 29.51 in 10.0 mi NE 6.9 mph - N/A   Overcast
8:25 PM 30.2 °F 23.4 °F 28.4 °F 93% 29.51 in 10.0 mi NE 6.9 mph - N/A   Overcast
8:53 PM 30.9 °F 24.3 °F 28.0 °F 89% 29.54 in 10.0 mi NNE 6.9 mph - N/A   Overcast
9:53 PM 30.9 °F 25.2 °F 28.0 °F 89% 29.51 in 10.0 mi North 5.8 mph - N/A   Overcast
10:30 PM 30.2 °F 22.6 °F 28.4 °F 93% 29.46 in 2.5 mi North 8.1 mph - 0.00 in Snow Light Snow
10:32 PM 30.2 °F 22.6 °F 28.4 °F 93% 29.46 in 2.0 mi North 8.1 mph - 0.00 in Snow Light Snow
10:36 PM 30.2 °F 22.6 °F 28.4 °F 93% 29.46 in 1.8 mi North 8.1 mph - 0.00 in Snow Light Snow
10:53 PM 30.9 °F 22.8 °F 28.9 °F 92% 29.49 in 1.8 mi North 9.2 mph - 0.00 in Snow Light Snow
11:00 PM 30.2 °F 21.3 °F 28.4 °F 93% 29.45 in 2.0 mi North 10.4 mph - 0.00 in Snow Light Snow
11:24 PM 30.2 °F 22.6 °F 28.4 °F 93% 29.44 in 2.5 mi North 8.1 mph - 0.00 in Snow Light Snow
11:49 PM 30.2 °F 21.9 °F 28.4 °F 93% 29.43 in 1.5 mi North 9.2 mph - 0.00 in Snow Light Snow
11:53 PM 30.9 °F 22.2 °F 28.9 °F 92% 29.47 in 1.2 mi North 10.4 mph - 0.00 in Snow Light Snow